Home > Weather > Darwin > Past weeks

Flag for Australia Weather for the Past 2 Weeks in Darwin, Northern Territory, Australia

Now
84 °F

Clear.


Feels Like: 98 °F
Forecast: 85 / 91 °F
Wind: 9 mph from West

Location: Darwin Airport

Current Time: Feb 14, 2016 at 3:20:50 AM

Latest Report: Feb 14, 2016 at 2:30 AM


Visibility: N/A

Pressure: 29.74 "Hg

Humidity: 89%

Dew point: 81 °F

Location of DarwinLocation

Historic Weather in Darwin — Graph

°F

Darwin Temperature Yesterday

Maximum temperature yesterday: 91 °F (at 3:00 PM)
Minimum temperature yesterday: 77 °F (at 7:00 AM)
Average temperature yesterday: 84 °F

High & Low Weather Summary for the Past Weeks

 TemperatureHumidityPressure
High93 °F (Feb 9, 2:00 PM)100% (Jan 31, 4:00 AM)29.83 "Hg (Jan 31, 4:00 AM)
Low75 °F (Jan 31, 8:30 AM)52% (Feb 6, 5:30 PM)29.62 "Hg (Feb 11, 4:30 PM)
Average83 °F82%29.75 "Hg
* Reported Jan 30 1:30 AM — Feb 14 1:30 AM, Darwin, Weather by CustomWeather, © 2016

Note: Actual official high and low records may vary slightly from our data, if they occured in-between our weather recording intervals... More about our weather records

Advertising

Darwin Weather History for the Previous 24 Hours

 ConditionsComfort  
Time TempWeatherWind HumidityBarometerVisibility
1:30 AM
Sun, Feb 14
84 °FPassing clouds.10 mph89%29.77 "HgN/A
1:00 AM84 °FPassing clouds.9 mph89%29.77 "HgN/A
12:30 AM84 °FClear.9 mph89%29.80 "Hg10 mi
12:00 AM84 °FClear.9 mph84%29.80 "Hg10 mi
11:30 PM
Sat, Feb 13
84 °FClear.9 mph84%29.80 "Hg10 mi
11:00 PM84 °FClear.9 mph84%29.80 "Hg10 mi
10:30 PM84 °FClear.9 mph79%29.80 "Hg10 mi
10:00 PM81 °FClear.9 mph89%29.80 "Hg10 mi
9:30 PM81 °FClear.7 mph84%29.80 "Hg10 mi
9:00 PM79 °FClear.8 mph89%29.77 "Hg10 mi
8:30 PM79 °FPassing clouds.7 mph89%29.77 "HgN/A
8:00 PM77 °FScattered showers. Partly cloudy.9 mph94%29.77 "HgN/A
7:30 PM77 °FSprinkles. Broken clouds.17 mph89%29.80 "Hg3 mi
7:00 PM82 °FThunderstorms. Partly sunny.17 mph70%29.80 "HgN/A
6:30 PM88 °FPartly sunny.12 mph75%29.74 "HgN/A
6:00 PM88 °FPartly sunny.10 mph79%29.74 "HgN/A
5:30 PM88 °FPartly sunny.14 mph79%29.74 "HgN/A
5:00 PM88 °FPartly sunny.16 mph75%29.74 "HgN/A
4:30 PM88 °FPartly sunny.17 mph79%29.71 "HgN/A
4:00 PM90 °FPartly sunny.18 mph75%29.74 "HgN/A
3:30 PM91 °FPartly sunny.18 mph71%29.74 "HgN/A
3:00 PM91 °FBroken clouds.18 mph71%29.74 "HgN/A
2:30 PM90 °FBroken clouds.17 mph75%29.74 "HgN/A
1:30 PM90 °FPartly sunny.10 mph75%29.74 "HgN/A
1:00 PM90 °FPartly sunny.8 mph71%29.77 "HgN/A
12:30 PM88 °FPartly sunny.10 mph75%29.77 "HgN/A
11:30 AM86 °FBroken clouds.8 mph79%29.80 "HgN/A
10:30 AM86 °FPartly sunny.7 mph84%29.83 "HgN/A
10:00 AM84 °FPartly sunny.6 mph84%29.83 "HgN/A
9:30 AM82 °FBroken clouds.6 mph89%29.83 "HgN/A
9:00 AM81 °FBroken clouds.1 mph89%29.83 "HgN/A
8:30 AM81 °FScattered showers. Broken clouds.5 mph89%29.83 "HgN/A
7:30 AM77 °FThundershowers. Broken clouds.8 mph94%29.83 "Hg6 mi
7:00 AM77 °FSprinkles. Passing clouds.15 mph94%29.80 "HgN/A
6:30 AM79 °FScattered showers. Passing clouds.14 mph89%29.77 "HgN/A
5:30 AM84 °FScattered showers. Partly cloudy.8 mph84%29.74 "HgN/A
4:30 AM84 °FPassing clouds.8 mph84%29.74 "HgN/A
4:00 AM84 °FMostly cloudy.9 mph84%29.74 "HgN/A
3:30 AM84 °FOvercast.9 mph79%29.71 "HgN/A
3:00 AM84 °FPartly cloudy.8 mph79%29.74 "HgN/A
Weather by CustomWeather, © 2016

See weather overviewHow to use our weather pages